Find Starlink 30500

NORAD ID: 58076 Int'l Des: 2023-160 Owner: SPXS Country: US Constellation: starlink operational
LEOCIRCULAR

当前视图

正在加载3D地球...

About Starlink 30500

Starlink 30500 (NORAD 58076) is a starlink constellation satellite (v2 mini) launched Oct 18, 2023 by SPXS of US. It operates in LEO, CIRCULAR orbit with a mass of 730.00 kg.

即将过境

Passes for default location (London). Set your location on the main map for personalized predictions.

高度历史

Loading altitude history...

两行轨道根数

1 58076U 23160B 26252.93447142 .00001248 00000-0 54845-4 0 9994
2 58076 43.0028 117.3689 0001065 271.7072 88.3658 15.27588068161127
Epoch: Sep 9, 2026 • Age: 8 hours

当前状态

高度 485.9 km
远地点 / 近地点 N/A
速度 7.63 km/s
星下点 38.60°N, 146.16°E
发射日期 Oct 18, 2023
运行时间 2.8 years
类型 internet

技术详情

分类 Payload
质量 730.00 kg
干质量 700.00 kg
总质量 730.00 kg
长度 0.30 m
直径 4.10 m
跨度 29.00 m
形状 Box + pan
制造商 SPXS
平台类型 Starlink V2M
阶段状态 In Orbit
所有者/国家 SPXS/US

Most Searched